Regional Weather Roundup
Issued by NWS

Home | Current Version | Previous Version | Graphics & Text | Print | Product List | Glossary On
Versions: 1 2 3 4 5 6 7 8 9 10 11 12 13 14 15 16 17 18 19 20 21 22 23 24 25 26 27 28 29 30 31 32 33 34 35 36 37 38 39 40 41 42 43 44 45 46
000
ASUS45 KCYS 260310
RWRWY

WYOMING REGIONAL WEATHER ROUNDUP
NATIONAL WEATHER SERVICE CHEYENNE WY
800 PM MST THU DEC 25 2014

NOTE:  "FAIR" INDICATES FEW OR NO CLOUDS BELOW 12,000 FEET
WITH NO SIGNIFICANT WEATHER AND/OR OBSTRUCTIONS TO VISIBILITY.

WYZ001-260400-
YELLOWSTONE NATIONAL PARK

CITY           SKY/WX    TMP DP  RH WIND       PRES   REMARKS
LK YELLOWSTONE   N/A     10   4  76 VRB6      29.78R WCI   0
W YELLOWSTONE  NOT AVBL

$$
WYZ002>013-054>058-071-098>099-260400-
NORTHERN WYOMING

CITY           SKY/WX    TMP DP  RH WIND       PRES   REMARKS
JACKSON        CLOUDY    19  12  73 N14       29.75R WCI   6
CODY           CLOUDY    19  19 100 N8        29.89R WCI   9
GREYBULL       CLOUDY    22  15  75 NW13      29.90R WCI  10
WORLAND        LGT SNOW  22  19  89 NW5       29.92R FOG     WCI  16
SHERIDAN       FLURRIES  21  17  84 W8        29.97R WCI  11
BUFFALO        CLOUDY    17  15  92 N10G23    29.92R WCI   5
GILLETTE       CLOUDY    18  16  92 N14       29.93R WCI   4
HULETT           N/A    N/A N/A N/A MISG        N/A
NEWCASTLE      FAIR      21  18  86 NW12      29.90R WCI   9

$$
WYZ014>020-022>026-101>103-260400-
CENTRAL WYOMING

CITY           SKY/WX    TMP DP  RH WIND       PRES   REMARKS
BIG PINEY      CLOUDY    13  10  88 N5        29.73R WCI   5
PINEDALE       CLOUDY    18  14  86 W3        29.72R
DUBOIS         NOT AVBL
LANDER         LGT SNOW  19  17  92 CALM      29.84R VSB 1
RIVERTON       LGT SNOW  20  15  81 N16       29.85R WCI   6
CASPER         LGT SNOW  18  13  80 NE10      29.87R WCI   6
DOUGLAS        LGT SNOW  19  15  84 N8        29.88R FOG     WCI   9

$$
WYZ021-027>030-104>119-260400-
SOUTHERN WYOMING

CITY           SKY/WX    TMP DP  RH WIND       PRES   REMARKS
EVANSTON       CLOUDY    18  15  88 E15       29.69R WCI   4
FORT BRIDGER   LGT SNOW  18  17  96 E12       29.75R WCI   6
ROCK SPRINGS   LGT SNOW  16  12  84 NE28G38   29.71R FOG     WCI  -4
DIXON          CLOUDY    24  17  76 NE20      29.62R WCI   9
RAWLINS        LGT SNOW  16  11  80 NE23      29.73R WCI  -2
SARATOGA       FLURRIES  21  18  86 CALM      29.70R
LARAMIE        LGT SNOW  16  10  77 E15       29.71R WCI   1
CHEYENNE       FOG       18  14  84 NE14      29.76R VSB 1/2 WCI   4
TORRINGTON     LGT SNOW  22  19  89 NE10      29.86R FOG     WCI  11
PINE BLUFFS    CLOUDY    21  19  93 N14       29.80R WCI   8

$$


USA.gov is the U.S. government's official web portal to all federal, state and local government web resources and services.